Tracking 19709 objects as of 17-Jun-2019
HD Live streaming from Space Station
objects crossing your sky now

DIDO 2

Track DIDO 2 now!
10-day predictions


NORAD ID: 42000
Int'l Code: 2017-008BE
Perigee: 495.0 km
Apogee: 507.5 km
Inclination: 97.4 °
Period: 94.5 minutes
Semi major axis: 6872 km
RCS: Unknown
Launch date: February 15, 2017
Source: Israel (ISRA)
Launch site: SRIHARIKOTA (SRI)
aabbcc
Your satellite tracking list
Your tracking list is empty




NASA's NSSDC Master Catalog

Two Line Element Set (TLE):
1 42000U 17008BE  19168.17150143  .00000659  00000-0  30195-4 0  9991
2 42000  97.4012 233.7802 0009064 159.3026 200.8580 15.23890082128979
Source of the keplerian elements: AFSPC